When you browse on this site, cookies collect data to enhance your experience and personalize the content and advertising you see.
Visit our Privacy Policy to learn more. By continuing to use the site, you agree to this use of cookies and data.
  • Em Portugal
  • Lista de países
  • Para 7 dias
  • Temperatura da água
  • Mapa do tempo
  • Widgets de tempo
  • user-avatar
    Iniciar Sessão

    Previsão horária em Cacheu

    Hoje, 28 Fevereiro, Sexta-feira

    Tempo Temperatura Precipitação Vento Pressão Humidade
    00:00 +23°C° 0 mm 2 m/s 757 mmHg 71%
    01:00 +23°C° 0 mm 2 m/s 757 mmHg 68%
    02:00 +23°C° 0 mm 2 m/s 757 mmHg 65%
    03:00 +22°C° 0 mm 1 m/s 757 mmHg 64%
    04:00 +21°C° 0 mm 1 m/s 757 mmHg 62%
    05:00 +18°C° 0 mm 0 m/s 757 mmHg 60%
    06:00 +21°C° 0 mm 0 m/s 757 mmHg 52%
    07:00 +23°C° 0 mm 0 m/s 758 mmHg 44%
    08:00 +26°C° 0 mm 0 m/s 759 mmHg 35%
    09:00 +31°C° 0 mm 1 m/s 758 mmHg 27%
    10:00 +36°C° 0 mm 2 m/s 758 mmHg 19%
    11:00 +40°C° 0 mm 2 m/s 758 mmHg 11%
    12:00 +42°C° 0 mm 3 m/s 757 mmHg 11%
    13:00 +43°C° 0 mm 3 m/s 756 mmHg 12%
    14:00 +45°C° 0 mm 3 m/s 756 mmHg 12%
    15:00 +42°C° 0 mm 4 m/s 755 mmHg 18%
    16:00 +38°C° 0 mm 4 m/s 755 mmHg 24%
    17:00 +35°C° 0 mm 5 m/s 755 mmHg 29%
    18:00 +32°C° 0 mm 4 m/s 756 mmHg 36%
    19:00 +28°C° 0 mm 3 m/s 756 mmHg 43%
    20:00 +24°C° 0 mm 2 m/s 757 mmHg 50%
    21:00 +24°C° 0 mm 2 m/s 757 mmHg 47%
    22:00 +23°C° 0 mm 2 m/s 757 mmHg 43%
    23:00 +21°C° 0 mm 3 m/s 758 mmHg 40%

    Amanhã, 29 Fevereiro, Sábado

    Tempo Temperatura Precipitação Vento Pressão Humidade
    00:00 +21°C° 0 mm 3 m/s 757 mmHg 41%
    01:00 +21°C° 0 mm 3 m/s 757 mmHg 41%
    02:00 +21°C° 0 mm 4 m/s 756 mmHg 42%
    03:00 +21°C° 0 mm 4 m/s 756 mmHg 36%
    04:00 +21°C° 0 mm 4 m/s 756 mmHg 30%
    05:00 +21°C° 0 mm 4 m/s 756 mmHg 23%
    06:00 +23°C° 0 mm 4 m/s 757 mmHg 19%
    07:00 +26°C° 0 mm 5 m/s 757 mmHg 14%
    08:00 +28°C° 0 mm 5 m/s 758 mmHg 10%
    09:00 +32°C° 0 mm 5 m/s 757 mmHg 8%
    10:00 +36°C° 0 mm 5 m/s 757 mmHg 6%
    11:00 +41°C° 0 mm 5 m/s 757 mmHg 5%
    12:00 +42°C° 0 mm 4 m/s 756 mmHg 5%
    13:00 +44°C° 0 mm 3 m/s 755 mmHg 5%
    14:00 +45°C° 0 mm 3 m/s 755 mmHg 5%
    15:00 +42°C° 0 mm 3 m/s 754 mmHg 10%
    16:00 +38°C° 0 mm 4 m/s 754 mmHg 15%
    17:00 +36°C° 0 mm 5 m/s 754 mmHg 21%
    18:00 +32°C° 0 mm 4 m/s 754 mmHg 29%
    19:00 +28°C° 0 mm 3 m/s 755 mmHg 38%
    20:00 +25°C° 0 mm 3 m/s 755 mmHg 46%
    21:00 +24°C° 0 mm 3 m/s 756 mmHg 49%
    22:00 +24°C° 0 mm 3 m/s 756 mmHg 52%
    23:00 +22°C° 0 mm 3 m/s 756 mmHg 54%

    Depois de amanhã, 1 Março, Domingo

    Tempo Temperatura Precipitação Vento Pressão Humidade
    00:00 +21°C° 0 mm 2 m/s 756 mmHg 56%
    01:00 +21°C° 0 mm 2 m/s 756 mmHg 57%
    02:00 +20°C° 0 mm 2 m/s 756 mmHg 59%
    03:00 +20°C° 0 mm 2 m/s 755 mmHg 50%
    04:00 +19°C° 0 mm 2 m/s 755 mmHg 40%
    05:00 +19°C° 0 mm 2 m/s 755 mmHg 31%
    06:00 +21°C° 0 mm 2 m/s 756 mmHg 27%
    07:00 +24°C° 0 mm 2 m/s 756 mmHg 23%
    08:00 +26°C° 0 mm 2 m/s 757 mmHg 19%
    09:00 +31°C° 0 mm 3 m/s 756 mmHg 15%
    10:00 +36°C° 0 mm 4 m/s 756 mmHg 11%
    11:00 +42°C° 0 mm 5 m/s 756 mmHg 7%
    12:00 +43°C° 0 mm 4 m/s 755 mmHg 8%
    13:00 +44°C° 0 mm 4 m/s 755 mmHg 8%
    14:00 +45°C° 0 mm 3 m/s 754 mmHg 8%
    15:00 +42°C° 0 mm 4 m/s 754 mmHg 18%
    16:00 +38°C° 0 mm 4 m/s 754 mmHg 29%
    17:00 +35°C° 0 mm 5 m/s 753 mmHg 39%
    18:00 +32°C° 0 mm 4 m/s 754 mmHg 48%
    19:00 +28°C° 0 mm 3 m/s 755 mmHg 58%
    20:00 +24°C° 0 mm 3 m/s 755 mmHg 67%
    21:00 +24°C° 0 mm 2 m/s 756 mmHg 63%
    22:00 +23°C° 0 mm 2 m/s 756 mmHg 59%
    23:00 +23°C° 0 mm 1 m/s 756 mmHg 56%

    2 Março, Segunda-feira

    Tempo Temperatura Precipitação Vento Pressão Humidade
    00:00 +22°C° 0 mm 1 m/s 756 mmHg 57%
    01:00 +22°C° 0 mm 1 m/s 756 mmHg 58%
    02:00 +21°C° 0 mm 1 m/s 756 mmHg 59%
    03:00 +21°C° 0 mm 1 m/s 756 mmHg 61%
    04:00 +21°C° 0 mm 1 m/s 755 mmHg 63%
    05:00 +20°C° 0 mm 1 m/s 755 mmHg 65%
    06:00 +23°C° 0 mm 1 m/s 756 mmHg 59%
    07:00 +25°C° 0 mm 2 m/s 756 mmHg 54%
    08:00 +27°C° 0 mm 2 m/s 757 mmHg 49%
    09:00 +31°C° 0 mm 2 m/s 757 mmHg 38%
    10:00 +36°C° 0 mm 2 m/s 757 mmHg 28%
    11:00 +40°C° 0 mm 2 m/s 758 mmHg 18%
    12:00 +40°C° 0 mm 3 m/s 757 mmHg 18%
    13:00 +42°C° 0 mm 4 m/s 756 mmHg 18%
    14:00 +42°C° 0 mm 4 m/s 755 mmHg 18%
    15:00 +40°C° 0 mm 5 m/s 755 mmHg 25%
    16:00 +36°C° 0 mm 5 m/s 755 mmHg 32%
    17:00 +34°C° 0 mm 5 m/s 755 mmHg 38%
    18:00 +30°C° 0 mm 4 m/s 755 mmHg 51%
    19:00 +27°C° 0 mm 3 m/s 756 mmHg 64%
    20:00 +24°C° 0 mm 2 m/s 756 mmHg 77%
    21:00 +24°C° 0 mm 2 m/s 757 mmHg 80%
    22:00 +24°C° 0 mm 2 m/s 757 mmHg 83%
    23:00 +23°C° 0 mm 2 m/s 758 mmHg 87%

    3 Março, Terça-feira

    Tempo Temperatura Precipitação Vento Pressão Humidade
    00:00 +23°C° 0 mm 2 m/s 757 mmHg 88%
    01:00 +22°C° 0 mm 1 m/s 757 mmHg 89%
    02:00 +22°C° 0 mm 1 m/s 757 mmHg 90%
    03:00 +21°C° 0 mm 1 m/s 757 mmHg 89%
    04:00 +21°C° 0 mm 1 m/s 757 mmHg 89%
    05:00 +21°C° 0 mm 1 m/s 757 mmHg 89%
    06:00 +23°C° 0 mm 1 m/s 757 mmHg 79%
    07:00 +25°C° 0 mm 1 m/s 757 mmHg 69%
    08:00 +28°C° 0 mm 1 m/s 758 mmHg 60%
    09:00 +31°C° 0 mm 1 m/s 758 mmHg 46%
    10:00 +36°C° 0 mm 2 m/s 758 mmHg 32%
    11:00 +40°C° 0 mm 2 m/s 758 mmHg 18%
    12:00 +40°C° 0 mm 3 m/s 757 mmHg 19%
    13:00 +41°C° 0 mm 4 m/s 756 mmHg 20%
    14:00 +41°C° 0 mm 4 m/s 755 mmHg 22%
    15:00 +39°C° 0 mm 5 m/s 755 mmHg 28%
    16:00 +36°C° 0 mm 5 m/s 755 mmHg 34%
    17:00 +33°C° 0 mm 5 m/s 755 mmHg 41%
    18:00 +30°C° 0 mm 4 m/s 756 mmHg 54%
    19:00 +27°C° 0 mm 3 m/s 756 mmHg 67%
    20:00 +24°C° 0 mm 3 m/s 757 mmHg 79%
    21:00 +24°C° 0 mm 3 m/s 757 mmHg 80%
    22:00 +22°C° 0 mm 3 m/s 757 mmHg 80%
    23:00 +22°C° 0 mm 3 m/s 758 mmHg 81%

    4 Março, Quarta-feira

    Tempo Temperatura Precipitação Vento Pressão Humidade
    00:00 +21°C° 0 mm 2 m/s 757 mmHg 82%
    01:00 +21°C° 0 mm 2 m/s 757 mmHg 84%
    02:00 +21°C° 0 mm 1 m/s 757 mmHg 85%
    03:00 +21°C° 0 mm 1 m/s 757 mmHg 84%
    04:00 +20°C° 0 mm 1 m/s 757 mmHg 82%
    05:00 +20°C° 0 mm 1 m/s 757 mmHg 81%
    06:00 +22°C° 0 mm 1 m/s 757 mmHg 68%
    07:00 +25°C° 0 mm 1 m/s 758 mmHg 55%
    08:00 +28°C° 0 mm 1 m/s 758 mmHg 42%
    09:00 +31°C° 0 mm 1 m/s 758 mmHg 33%
    10:00 +35°C° 0 mm 1 m/s 758 mmHg 23%
    11:00 +40°C° 0 mm 2 m/s 758 mmHg 14%
    12:00 +41°C° 0 mm 2 m/s 757 mmHg 13%
    13:00 +43°C° 0 mm 3 m/s 756 mmHg 12%
    14:00 +44°C° 0 mm 4 m/s 756 mmHg 11%
    15:00 +41°C° 0 mm 4 m/s 755 mmHg 19%
    16:00 +38°C° 0 mm 4 m/s 755 mmHg 26%
    17:00 +35°C° 0 mm 5 m/s 755 mmHg 34%
    18:00 +32°C° 0 mm 4 m/s 756 mmHg 46%
    19:00 +27°C° 0 mm 3 m/s 756 mmHg 59%
    20:00 +24°C° 0 mm 3 m/s 756 mmHg 71%
    21:00 +24°C° 0 mm 2 m/s 757 mmHg 67%
    22:00 +23°C° 0 mm 2 m/s 757 mmHg 63%
    23:00 +23°C° 0 mm 2 m/s 757 mmHg 59%
    Mostrar mais